www.pogodaiklimat.ru

Погода и климат >> Архив погоды >> Колумбия >> Valledupar


ПОГОДА в Valledupar

  • Прогноз погоды в Valledupar
  • Монитор погоды в Valledupar
  • Климат города

АРХИВ ПОГОДЫ в Valledupar

Время (UTC), дата Ветер
(напр.,м/с)
 
Видим.   Явления Облачность Т
(С)
Тd
(С)
f
(%)
Тe
(С)
Тes
(С)
Комфортность P
(гПа)
Po
(гПа)
Тmin
(С)
Tmax
(С)
R
(мм)
R24
(мм)
S
(см)
21 20.06 СВ 4 15 км мгла 9/1 450 м
[Cu Sc Ac trans Cs]
+33.0 +23.5 58 +44 +46 опасность
перегрева
1008.0 1007.5
00 21.06 В 4 15 км мгла 8/3 450 м
[Cu Sc Ac trans Cs]
+29.6 +23.3 69 +40 +40 очень
душно
1009.5 1009.0 +33.6
12 21.06 СВ 2 10 км мгла 9/1 300 м
[Cu Sc Ac As Cs]
+24.9 +21.9 83 +32 +33 очень
душно
1012.5 1012.0 +24.2
15 21.06 штиль 0 10 км мгла 10/1 300 м
[Cu Sc Ac As Cs]
+29.7 +22.3 65 +39 +49 очень
душно
1012.5 1013.0
18 21.06 ЮЗ 2 15 км мгла 9/3 300 м
[Cu Sc Cs]
+30.0 +24.0 70 +41 +53 опасность
перегрева
1012.2 1011.7
21 21.06 Ю 3 15 км мгла 9/3 450 м
[Cu Sc Cs]
+30.8 +24.0 67 +42 +45 опасность
перегрева
1010.3 1009.8
00 22.06 З 2 15 км мгла 8/3 450 м
[Cu Sc Cs]
+29.0 +24.4 76 +41 +41 опасность
перегрева
1011.6 1011.1 +31.8
12 22.06 СВ 3 8000 м мгла 8/1 300 м
[Cu Sc Ac trans Cs]
+25.2 +23.5 90 +34 +35 очень
душно
1014.0 1013.5 +25.0
15 22.06 СВ 3 10 км мгла 9/1 450 м
[Cu Sc Cs]
+28.4 +23.2 73 +38 +48 очень
душно
1014.0 1013.5
18 22.06 З 2 15 км мгла 8/3 450 м
[Cu Sc Cs]
+31.0 +24.2 67 +43 +55 опасность
перегрева
1012.5 1012.0
21 22.06 штиль 0 15 км мгла 6/3 450 м
[Cu Sc Cs]
+33.0 +23.8 59 +45 +49 опасность
перегрева
1010.2 1009.7
00 23.06 Ю 2 15 км мгла 10/4 450 м
[Cb calv Ac trans Cs]
+30.0 +25.3 76 +44 +44 опасность
перегрева
1011.4 1010.9 +34.6
12 23.06 С 2 10 км мгла 6/1 300 м
[Sc Cs]
+25.6 +21.6 79 +33 +35 очень
душно
1013.6 1013.1 +24.4 0.2
15 23.06 В 3 15 км мгла 5/3 450 м
[Cu Sc Cs]
+30.0 +23.1 67 +40 +49 очень
душно
1013.9 1013.4
18 23.06 СВ 2 15 км мгла 5/3 450 м
[Cu Sc Ci sp]
+32.1 +22.9 58 +42 +55 опасность
перегрева
1012.6 1012.1
21 23.06 СВ 6 15 км мгла 5/3 450 м
[Cu Sc Ci sp]
+33.3 +21.7 51 +42 +43 опасность
перегрева
1010.2 1000.9
00 24.06 СВ 4 15 км мгла 3/3 450 м
[Cu Sc]
+29.8 +20.9 59 +37 +37 очень
душно
1011.1 1010.6 +33.9
12 24.06 С 5 15 км мгла 1/1 600 м
[Cu Sc]
+25.4 +21.7 80 +33 +34 очень
душно
1012.5 1012.0 +24.9
15 24.06 СВ 5 15 км мгла 3/1 600 м
[Cu Sc Ci sp]
+29.5 +22.2 65 +38 +46 очень
душно
1012.8 1012.3
18 24.06 В 3 15 км мгла 6/3 600 м
[Cu Sc Ci sp]
+32.8 +23.6 59 +44 +55 опасность
перегрева
1011.9 1011.4
21 24.06 СВ 2 15 км мгла 6/3 600 м
[Cu Sc Cs]
+34.2 +23.0 52 +44 +48 опасность
перегрева
1009.6 1009.1
00 25.06 штиль 0 15 км мгла 8/3 450 м
[Cu med, cong Cs]
+30.6 +23.5 66 +41 +41 опасность
перегрева
1011.0 1010.5 +34.6
12 25.06 СВ 4 15 км мгла 9/1 450 м
[Sc Cs]
+26.0 +24.1 89 +36 +37 очень
душно
1013.0 1012.5 +25.6
15 25.06 В 4 15 км мгла 8/1 450 м
[Cu Sc Ac trans Cs]
+29.8 +24.4 73 +42 +48 опасность
перегрева
1014.1 1013.6
18 25.06 ЮЗ 2 15 км мгла 6/1 600 м
[Cu Sc Ac trans Cs]
+33.8 +23.2 54 +44 +57 опасность
перегрева
1013.1 1012.6
21 25.06 Ю 2 15 км мгла 9/3 600 м
[Cu med, cong Ac As Cs]
+31.9 +23.9 63 +44 +46 опасность
перегрева
1010.6 1010.1
00 26.06 СВ 3 15 км мгла 10/3 600 м
[Cu Sc Ac As Cs]
+27.1 +22.4 76 +36 +36 очень
душно
1012.6 1012.1 +34.2
12 26.06 С 3 9000 м мгла 9/1 600 м
[Cu Sc Ac As Cs]
+26.6 +22.7 79 +35 +36 очень
душно
1014.5 1014.0 +25.5
15 26.06 В 2 10 км мгла 8/1 600 м
[Cu Sc Ac As Cs]
+30.5 +22.3 62 +40 +49 очень
душно
1014.1 1013.6
18 26.06 ЮЗ 3 15 км мгла 6/3 600 м
[Cu Sc Ci sp]
+31.4 +24.4 66 +44 +54 опасность
перегрева
1012.0 1011.5
21 26.06 штиль 0 15 км гроза без осадков 6/3 600 м
[Cb cap Ci sp]
+32.2 +24.4 63 +44 +49 опасность
перегрева
1010.3 1009.8
00 27.06 штиль 0 10 км гроза без осадков 10/5 450 м
[Cb cap Ac As Cs]
+27.6 +23.5 78 +37 +37 очень
душно
1011.5 1011.0 +32.8
12 27.06 штиль 0 8000 м осадки на расстоянии 10/4 100 м
[Frnb As op Cs]
+23.8 +23.2 96 +32 +33 очень
душно
1014.0 1013.5 +23.8 9
15 27.06 СВ 4 10 км мгла 8/3 300 м
[Cu Sc Ac trans Cs]
+28.6 +24.3 78 +40 +45 очень
душно
1014.7 1014.2
18 27.06 Ю 2 15 км мгла 6/3 450 м
[Cu Sc Cs]
+30.8 +23.2 64 +41 +54 опасность
перегрева
1012.9 1012.4

 

Местоположение метеостанции Valledupar (Колумбия): широта 10.43 долгота -73.25 высота над уровнем моря 138 м.

В архиве по умолчанию представлена погода в Valledupar за последнюю неделю. Архивные данные за месяц целиком и за предыдущие месяцы, начиная с января 2011 года, Вы можете получить, выбрав интересующий диапазон дат из раскрывающегося списка и нажав кнопку "Ввод!".

Внимание! Время в таблицах - всемирное. Для получения местного времени необходимо прибавить поправку, которая в Valledupar равна -5 ч.

Смотрите также архив погоды в соседних городах и на ближайших метеорологических станциях:

Погода в Riohacha (Колумбия) (127 км)
Погода в Santa Marta (Колумбия) (132 км)
Погода в Maracaibo - La Chinit (Венесуэла) (167 км)
Погода в Barranquilla (Колумбия) (175 км)
Погода в Maracaibo - La Canada (Венесуэла) (175 км)
Погода в Cartagena (Колумбия) (247 км)
Погода в Mene Grande (Венесуэла) (263 км)
Погода в El Vigia (Венесуэла) (266 км)
Погода в Cucuta (Колумбия) (290 км)
Погода в San Antonio del Tachira (Венесуэла) (300 км)

Пояснения к столбцам:

Ветер - указаны скорость ветра в м/с - средняя за 10 мин, порывы в срок и между сроками (в фигурных скобках) и направление, откуда дует ветер: С - северный, СВ - северо-восточный, В - восточный, ЮВ - юго-восточный, Ю - южный, ЮЗ - юго-западный, З - западный, СЗ - северо-западный.
Видимость - горизонтальная дальность видимости в метрах или километрах. При видимости от 1 до 10 км при отсутствии осадков обычно наблюдается дымка, при ухудшении видимости до 1 км и менее - туман. В сухую погоду видимость может ухудшаться дымом, пылью или мглою.
Явления - указаны атмосферные явления, наблюдавшиеся в срок или в последний час перед сроком; фигурными скобками обозначены явления, наблюдавшиеся между сроками (за 1-3 часа до срока); квадратными скобками обозначены град или гололедные отложения с указанием их диаметра в мм.
Облачность - указаны через наклонную черту общая и нижняя облачность в баллах и высота нижней границы облаков в метрах; квадратными скобками обозначены формы облаков: Ci - перистые, Cs - перисто-слоистые, Cc - перисто-кучевые, Ac - высококучевые, As - высокослоистые, Sc - слоисто-кучевые, Ns - слоисто-дождевые, Cu - кучевые, Cb - кучево-дождевые. Подробнее классификацию облаков см. в Атласе облаков (PDF).
T - Температура воздуха - температура, измеренная на высоте 2 м над землей.
Td - Температура точки росы - температура, при понижении до которой содержащийся в воздухе водяной пар достигнет насыщения.
f - Относительная влажность воздуха - влажноcть воздуха, измеренная на высоте 2 м над землей.
Te - Эффективная температура - температура, которую ощущает одетый по сезону человек в тени. Характеристика душности погоды. При расчете учитывается влияние влажности воздуха и скорости ветра на теплоощущения человека.
Tes - Эффективная температура на солнце - температура, которую ощущает человек, с поправкой на солнечный нагрев. Характеристика знойности погоды. Зависит от высоты солнца над горизонтом, облачности и скорости ветра. Ночью, в пасмурную погоду, а также при ветре 12 м/с и более поправка равна нулю.
P - Атмосферное давление - приведенное к уровню моря атмосферное давление.
Po - Атмосферное давление - измеренное на уровне метеостанции атмосферное давление.
Tmin - Минимальная температура - минимум температуры воздуха на высоте 2 м над землей.
Tmax - Максимальная температура - максимум температуры воздуха на высоте 2 м над землей.
R - Количество осадков - Количество выпавших осадков за период времени, мм. При наведении курсора мыши на число - период времени, за который выпало указанное количество осадков.
R24 - Количество осадков - Количество выпавших осадков за 24 часа, мм.
S - Снежный покров - Высота снежного покрова, см. При наведении курсора мыши на число - состояние снежного покрова и степень покрытия местности в баллах.